This demonstration page uses our WeatherBlox Daily Observations layout. Learn more.

Left ArrowRight Arrow

38.89511, -77.03637

Hourly Observations for February 5, 2017

Temp ( °F °C ) Dew Point ( °F °C ) Humidity (%) Winds ( mph kmh ) Pressure ( in mb ) Visibility ( mi km ) Precip ( " mm )
12:52 am 00:52 Cloudy 34 1.1 12 -11.1 40 40 S 10 17 30.27 1025 10 16 0.00 0.00
1:52 am 01:52 Mostly Cloudy 34 1.1 12 -11.1 40 40 S 15 24 30.22 1024 10 16 0.00 0.00
2:52 am 02:52 Mostly Clear 33 0.6 13 -10.6 43 43 S 13 20 30.20 1023 10 16 0.00 0.00
3:52 am 03:52 Mostly Clear 32 0 15 -9.4 50 50 S 10 17 30.18 1022 10 16 0.00 0.00
4:52 am 04:52 Cloudy 34 1.1 16 -8.9 48 48 S 16 26 30.15 1021 10 16 0.00 0.00
5:52 am 05:52 Cloudy 35 1.7 15 -9.4 44 44 S 13 20 30.13 1020 10 16 0.00 0.00
6:52 am 06:52 Cloudy 36 2.2 15 -9.4 42 42 SSW 9 15 30.12 1020 10 16 0.00 0.00
7:52 am 07:52 Cloudy 36 2.2 16 -8.9 44 44 SSW 9 15 30.11 1020 10 16 0.00 0.00
8:52 am 08:52 Cloudy 37 2.8 16 -8.9 42 42 SSW 12 19 30.09 1019 10 16 0.00 0.00
9:52 am 09:52 Mostly Cloudy 40 4.4 15 -9.4 36 36 SSW 13 20 30.06 1018 10 16 0.00 0.00
10:52 am 10:52 Mostly Cloudy 43 6.1 15 -9.4 32 32 SSW 13 20 30.04 1017 10 16 0.00 0.00
11:52 am 11:52 Mostly Cloudy 44 6.7 20 -6.7 38 38 S 10 17 30.00 1016 10 16 0.00 0.00
12:52 pm 12:52 Mostly Cloudy 49 9.4 18 -7.8 29 29 SW 12 19 29.96 1015 10 16 0.00 0.00
1:52 pm 13:52 Cloudy 50 10 20 -6.7 30 30 WSW 12 19 29.93 1013 10 16 0.00 0.00
2:52 pm 14:52 Mostly Cloudy 52 11.1 24 -4.4 34 34 WSW 10 17 29.91 1013 10 16 0.00 0.00
3:52 pm 15:52 Mostly Sunny 54 12.2 26 -3.3 34 34 W 8 13 29.92 1013 10 16 0.00 0.00
4:52 pm 16:52 Partly Cloudy 53 11.7 26 -3.3 35 35 WSW 9 15 29.92 1013 10 16 0.00 0.00
5:52 pm 17:52 Mostly Clear 51 10.6 26 -3.3 38 38 WSW 3 6 29.95 1014 10 16 0.00 0.00
6:52 pm 18:52 Mostly Clear 51 10.6 27 -2.8 39 39 WNW 6 9 29.98 1015 10 16 0.00 0.00
7:52 pm 19:52 Mostly Clear 44 6.7 30 -1.1 58 58 E 3 6 30.00 1016 10 16 0.00 0.00
8:52 pm 20:52 Mostly Clear 42 5.6 30 -1.1 62 62 S 6 9 30.00 1016 10 16 0.00 0.00
9:52 pm 21:52 Clear 41 5 32 0 70 70 S 8 13 30.01 1016 10 16 0.00 0.00
10:52 pm 22:52 Clear 40 4.4 30 -1.1 68 68 S 6 9 30.03 1017 10 16 0.00 0.00
11:52 pm 23:52 Mostly Clear 38 3.3 32 0 79 79 S 8 13 30.03 1017 10 16 0.00 0.00

Powered by AerisWeather